Regional Weather Roundup
Issued by NWS Kansas City/Pleasant Hill, MO

Home | Current Version | Previous Version | Text Only | Print | Product List | Glossary On
Versions: 1 2 3 4 5 6 7 8 9 10 11 12 13 14 15 16 17 18 19 20 21 22 23 24 25 26 27 28
000
ASUS43 KEAX 232010
RWREAX

WEATHER ROUNDUP FOR EASTERN KANSAS AND NORTHWEST MISSOURI
NATIONAL WEATHER SERVICE KANSAS CITY/PLEASANT HILL MO
300 PM CDT TUE AUG 23 2016

KSZ040-057-103>105-MOZ028-029-037-043-232100-
...KANSAS CITY METROPOLITAN AREA...

CITY           SKY/WX    TMP DP  RH WIND       PRES   REMARKS
K.C. INTL      CLOUDY    84  72  67 S21G29    29.97F
K.C. DOWNTOWN  PTSUNNY   86  73  65 S14G23    29.97F HX  93
LEES SUMMIT    PTSUNNY   84  73  69 S17G24    30.00F HX  90
OLATHE - IXD   CLOUDY    84  73  69 S18G29    29.99F HX  90
OLATHE - OJC   CLOUDY    82  72  71 S17G25    30.00F
LAWRENCE       PTSUNNY   85  74  69 S16G24    29.96F HX  92

$$

MOZ001>008-011>017-020>025-030>033-038>040-044>046-053-054-232100-
...NORTHERN AND CENTRAL MISSOURI...

CITY           SKY/WX    TMP DP  RH WIND       PRES   REMARKS
ST. JOSEPH     CLOUDY    82  73  74 S18       29.95S
MOSBY            N/A     81  72  74 S8        29.99F
WHITEMAN AFB   PTSUNNY   83  77  82 S21       30.03F HX  91
CLINTON        CLOUDY    81  75  83 S9        30.06F
SEDALIA        CLOUDY    82  75  79 S15G24    30.08S
WARSAW         NOT AVBL
CHILLICOTHE      N/A     79  72  79 S8G20     30.02F
KIRKSVILLE     CLOUDY    76  70  82 S13       30.07S

$$

MOZ041-047>049-056>058-063>065-088>090-097-232100-
...EASTERN AND SOUTHERN MISSOURI...

CITY           SKY/WX    TMP DP  RH WIND       PRES   REMARKS
ST. LOUIS INTL CLOUDY    78  68  71 S12       30.15F
SPIRIT OF STL  CLOUDY    77  71  82 S9        30.14S
COLUMBIA       LGT RAIN  73  72  96 S9        30.11F
JEFFERSON CITY LGT RAIN  73  71  93 SE12      30.10F FOG
ROLLA          LGT RAIN  74  71  91 S6        30.15S
OSAGE BEACH    CLOUDY    77  73  88 SE7       30.12F
SPRINGFIELD    MOSUNNY   84  72  67 S10       30.11F
BRANSON        PTSUNNY   84  72  65 S7        30.15F
JOPLIN         CLOUDY    84  72  67 S13       30.07F
WEST PLAINS    HVY RAIN  79  73  82 E8        30.18F

$$

IAZ060-094-KSZ022-034>040-054-083-096-NEZ052-066-093-232100-
...KANSAS...SOUTHEAST NEBRASKA AND IOWA...

CITY           SKY/WX    TMP DP  RH WIND       PRES   REMARKS
TOPEKA         PTSUNNY   86  73  65 S20G26    29.93F HX  93
MANHATTAN      PTSUNNY   88  73  61 S21G33    29.88S HX  95
EMPORIA        CLOUDY    82  72  71 S20G32    29.96F
CHANUTE        PTSUNNY   83  73  72 S13G23    30.01F
WICHITA        CLOUDY    88  71  57 S24G33    29.92F HX  94
OMAHA          CLOUDY    82  72  71 S25       29.87F
LINCOLN        PTSUNNY   88  72  58 S20G28    29.83F HX  94
FALLS CITY     CLOUDY    84  73  69 S18G29    29.90F HX  90
LAMONI         CLOUDY    75  71  87 S12G24    30.00F
DES MOINES     CLOUDY    80  70  71 S16G24    29.97F

$$





USA.gov is the U.S. government's official web portal to all federal, state and local government web resources and services.